Location: Montreal
(45.5000°N, 73.5833°W)
Time: 11:08:10
(UTC-04:00)

Vanguard 1 Rocket - Visible Passes

Search period start: 17 October 2017 00:00
Search period end: 27 October 2017 00:00
Orbit: 655 x 4222 km, 34.3° (Epoch: 16 October)

Date Brightness Start Highest point End Pass type
(mag) Time Alt. Az. Time Alt. Az. Time Alt. Az.
21 Oct 10.4 05:48:14 10° S 05:52:25 13° SSE 05:55:45 10° SE visible
23 Oct 10.2 05:48:39 10° SSW 05:55:37 19° SSE 06:00:30 10° ESE visible
24 Oct 10.6 04:37:39 10° S 04:44:10 15° SSE 04:49:04 10° SE visible
25 Oct 11.0 03:28:54 10° SSE 03:32:23 11° SSE 03:35:25 10° SE visible
25 Oct 9.9 05:49:54 10° SW 05:58:48 25° SSE 06:04:30 10° ESE visible
26 Oct 10.3 04:37:48 10° SSW 04:47:20 21° SSE 04:53:41 10° ESE visible
